Location: Eldred Sherwood Park Lake Dam
(42.9416°N, 93.5655°W)
Time: 12:11:33
(UTC+00:00)

Explorer 11/Cluster Stage 4 - Visible Passes

Search period start: 09 December 2025 00:00
Search period end: 19 December 2025 00:00
Orbit: 463 x 1181 km, 28.8° (Epoch: 09 December)

Date Brightness Start Highest point End Pass type
(mag) Time Alt. Az. Time Alt. Az. Time Alt. Az.
11 Dec 9.3 02:01:27 10° SSW 02:02:25 12° SSW 02:02:25 12° SSW visible
12 Dec 9.0 01:37:11 10° SSW 01:40:15 16° S 01:40:15 16° S visible
13 Dec 8.8 01:12:57 10° SSW 01:17:27 18° SSE 01:18:03 17° SSE visible
14 Dec 8.8 00:48:45 10° SSW 00:53:37 19° SSE 00:55:50 16° SE visible
14 Dec 9.3 02:35:34 10° SW 02:37:06 15° SW 02:37:06 15° SW visible
15 Dec 8.9 00:24:34 10° SSW 00:29:44 20° SSE 00:33:36 13° SE visible
15 Dec 8.9 02:11:26 10° SW 02:14:52 21° SSW 02:14:52 21° SSW visible
16 Dec 9.0 00:00:27 10° SSW 00:05:50 21° SSE 00:10:55 10° ESE visible
16 Dec 8.6 01:47:18 10° SW 01:52:38 25° S 01:52:38 25° S visible
16 Dec 9.1 23:36:22 10° SSW 23:41:55 21° SSE 23:47:14 10° ESE visible
17 Dec 8.5 01:23:12 10° SW 01:29:11 26° S 01:30:24 24° SSE visible
17 Dec 9.7 03:11:33 10° WSW 03:11:40 10° WSW 03:11:40 10° WSW visible
17 Dec 9.1 23:12:19 10° SSW 23:17:58 22° SSE 23:23:28 10° ESE visible
18 Dec 8.7 00:59:07 10° SW 01:05:16 26° S 01:08:11 20° SSE visible
18 Dec 9.4 02:47:25 10° WSW 02:49:27 15° SW 02:49:27 15° SW visible
